Regional Weather Roundup
Issued by NWS

Home | Current Version | Previous Version | Text Only | Print | Product List | Glossary On
Versions: 1 2 3 4 5 6 7 8 9 10 11 12 13 14 15 16 17 18 19 20 21 22 23 24 25 26 27 28 29 30 31 32 33 34 35 36 37 38 39 40 41 42 43 44 45 46 47 48 49 50
000
ASUS43 KDTX 301810
RWRMI
MICHIGAN HOURLY REGIONAL WEATHER ROUNDUP
NATIONAL WEATHER SERVICE DETROIT/PONTIAC MI
200 PM EDT SAT AUG 30 2014

NOTE: "FAIR" INDICATES FEW OR NO CLOUDS BELOW 12,000 FEET WITH NO
SIGNIFICANT WEATHER AND/OR OBSTRUCTION TO VISIBILITY.

MIZ047>049-052>055-059>063-066>070-074>076-081>083-301900-
SOUTHEAST LOWER MICHIGAN

CITY           SKY/WX    TMP DP  RH WIND       PRES   REMARKS
ADRIAN         CLOUDY    80  66  62 SW13G23   29.96S
6HR MIN TEMP:  69; 6HR MAX TEMP:  83;

ALMA           CLOUDY    78  71  78 S12       29.87F
ANN ARBOR      CLOUDY    82  67  60 SW14G20   29.93F
BAD AXE        CLOUDY    77  72  83 S12       29.89F
6HR MIN TEMP:  70; 6HR MAX TEMP:  80;

CARO           CLOUDY    80  71  75 S13G18    29.88F
DETROIT CITY   PTSUNNY   87  67  51 SW18G25   29.92F HX  90
6HR MIN TEMP:  75; 6HR MAX TEMP:  87;

DETROIT        PTSUNNY   85  68  56 S20       29.93F
6HR MIN TEMP:  72; 6HR MAX TEMP:  85;

FLINT          CLOUDY    79  69  71 S12       29.91S
6HR MIN TEMP:  74; 6HR MAX TEMP:  82; 6HR PCP: TRACE;

GROSSE ILE     PTSUNNY   84  68  58 S20       29.93S
HILLSDALE      CLOUDY    81  69  68 SW10G17   29.95S
6HR MIN TEMP:  70; 6HR MAX TEMP:  82;

HOWELL         CLOUDY    78  69  73 S12       29.92F
6HR MIN TEMP:  69; 6HR MAX TEMP:  78;


CITY           SKY/WX    TMP DP  RH WIND       PRES   REMARKS
JACKSON        CLOUDY    79  68  69 SW10      29.93S
6HR MIN TEMP:  71; 6HR MAX TEMP:  79; 6HR PCP:  0.07;

LAMBERTVILLE   PTSUNNY   82  64  54 SW12G17   29.95S
LANSING        CLOUDY    78  69  73 S16       29.90F
6HR MIN TEMP:  71; 6HR MAX TEMP:  79; 6HR PCP: TRACE;

LAPEER         FAIR      80  67  64 SW10      29.92S
MASON          PTSUNNY   77  70  78 S5        29.91F
MONROE         PTSUNNY   84  66  54 SW14G21   29.93S
MT. CLEMENS    PTSUNNY   84  67  57 SW14      29.90F
6HR MIN TEMP:  72; 6HR MAX TEMP:  86;

PONTIAC        CLOUDY    80  66  62 SW8G21    29.93S
6HR MIN TEMP:  70; 6HR MAX TEMP:  81;

PORT HOPE        N/A     76  69  79 VRB3      29.86F
6HR MIN TEMP:  69; 6HR MAX TEMP:  82; 6HR PCP:  0.05;

PORT HURON     CLOUDY    81  70  69 S15       29.92S
TRI CITIES     CLOUDY    79  70  74 SW13      29.88S
6HR MIN TEMP:  70; 6HR MAX TEMP:  79; 6HR PCP:  0.17;

TROY           PTSUNNY   84  66  54 SW15G24   29.94S
SAGINAW HB     CLOUDY    79  70  73 S14       29.87F
$$
MIZ043>046-050>051-056>058-064>065-071>073-077>080-301900-
SOUTHWEST LOWER MICHIGAN

CITY           SKY/WX    TMP DP  RH WIND       PRES   REMARKS
BATTLE CREEK   PTSUNNY   82  69  64 SW17      29.90F
6HR MIN TEMP:  72; 6HR MAX TEMP:  82; 6HR PCP: TRACE;

BENTON HARBOR  CLOUDY    79  68  69 S14G21    29.87S
6HR MIN TEMP:  71; 6HR MAX TEMP:  83; 6HR PCP:  0.02;

BIG RAPIDS     PTSUNNY   77  72  83 SW9G17    29.82F
6HR MIN TEMP:  69; 6HR MAX TEMP:  78;

COLDWATER      PTSUNNY   83  70  62 S13G21    29.92F
6HR MIN TEMP:  71; 6HR MAX TEMP:  84;

FREMONT        CLOUDY    76  69  78 SW14G22   29.83F HAZE
HOLLAND        PTSUNNY   82  69  64 SW24G35   29.86F
6HR MIN TEMP:  74; 6HR MAX TEMP:  83;

GRAND RAPIDS   PTSUNNY   81  74  79 S18       29.86F
6HR MIN TEMP:  72; 6HR MAX TEMP:  82; 6HR PCP:  0.14;

IONIA          MOCLDY    80  69  70 SW15G26   29.86F
KALAMAZOO      PTSUNNY   83  70  64 SW16      29.89F
6HR MIN TEMP:  71; 6HR MAX TEMP:  83; 6HR PCP: TRACE;

LUDINGTON      CLOUDY    74  69  84 S20G28    29.80S
6HR MIN TEMP:  72; 6HR MAX TEMP:  77;

MARSHALL       PTSUNNY   80  70  71 S10       29.90F
MOUNT PLEASANT PTSUNNY   79  68  69 S12       29.84F
6HR MIN TEMP:  69; 6HR MAX TEMP:  80; 6HR PCP:  0.07;

MUSKEGON       CLOUDY    77  69  76 S21G28    29.83F
6HR MIN TEMP:  74; 6HR MAX TEMP:  78;

SOUTH HAVEN    PTSUNNY   81  69  65 SW15      29.86S
$$
MIZ016>042-301900-
NORTHERN LOWER MICHIGAN

CITY           SKY/WX    TMP DP  RH WIND       PRES   REMARKS
ALPENA         PTSUNNY   76  69  79 S10       29.81F
6HR MIN TEMP:  65; 6HR MAX TEMP:  76; 6HR PCP:  0.35;

BEAVER ISLAND  CLOUDY    73  68  83 SW14G23   29.76S
6HR MIN TEMP:  68; 6HR MAX TEMP:  76;

BELLAIRE       PTSUNNY   81  67  62 SW8G18    29.76F
6HR MIN TEMP:  69; 6HR MAX TEMP:  81;

CADILLAC       PTSUNNY   77  69  76 S14G21    29.81F
CHARLEVOIX     MOSUNNY   80  69  70 S12G22    29.78F
6HR MIN TEMP:  70; 6HR MAX TEMP:  80;

FRANKFORT      MOSUNNY   78  68  70 SW13G21   29.77F
GAYLORD        PTSUNNY   78  67  68 SW13G21   29.81F
6HR MIN TEMP:  67; 6HR MAX TEMP:  78; 6HR PCP:  0.14;

GRAYLING       PTSUNNY   79  68  69 S12G17    29.82F
6HR MIN TEMP:  69; 6HR MAX TEMP:  79;

HARBOR SPRINGS PTSUNNY   78  68  73 SW12      29.76S
HOUGHTON LAKE  PTSUNNY   80  68  66 S12       29.83F
6HR MIN TEMP:  67; 6HR MAX TEMP:  80; 6HR PCP:  0.01;

MANISTEE       PTSUNNY   79  66  65 SW13G23   29.79S
OSCODA         CLOUDY    74  70  87 S13       29.84S
PELLSTON       PTSUNNY   80  69  69 SW15G21   29.77S
6HR MIN TEMP:  69; 6HR MAX TEMP:  80; 6HR PCP:  0.07;

ROGERS CITY    PTSUNNY   77  70  78 S12       29.79F
TRAVERSE CITY  PTSUNNY   81  67  62 S12G17    29.75F
6HR MIN TEMP:  71; 6HR MAX TEMP:  81; 6HR PCP:  0.14;

$$
MIZ007>008-015-301900-
EASTERN UPPER MICHIGAN

CITY           SKY/WX    TMP DP  RH WIND       PRES   REMARKS
KINROSS        CLOUDY    73  72  94 S10G17    29.76S
6HR MIN TEMP:  64; 6HR MAX TEMP:  73; 6HR PCP:  0.01;

MACKINAC ISLAN CLOUDY    74  70  85 SW7       29.76S
6HR MIN TEMP:  66; 6HR MAX TEMP:  74;

NEWBERRY       CLOUDY    68  68  99 SW8       29.74S FOG
S. S. MARIE    RAIN      68  66  93 SE8       29.76S FOG
6HR MIN TEMP:  64; 6HR MAX TEMP:  68; 6HR PCP:  0.04;

MUNISING         N/A     64  61  90 NE9       29.74S
6HR MIN TEMP:  64; 6HR MAX TEMP:  70; 6HR PCP:  0.16;

$$
MIZ004>006-011>014-085-301900-
CENTRAL UPPER MICHIGAN

CITY           SKY/WX    TMP DP  RH WIND       PRES   REMARKS
MANISTIQUE     FOG       66  66 100 S8        29.74S VSB<1/4
ESCANABA       CLOUDY    70  64  83 SE8       29.72S
6HR MIN TEMP:  66; 6HR MAX TEMP:  70; 6HR PCP:  0.01;

MENOMINEE      CLOUDY    70  64  83 NW8       29.71S
6HR MIN TEMP:  66; 6HR MAX TEMP:  73;

SAWYER-GWINN   RAIN      61  59  94 N9        29.78R
$$
MIZ001>003-009>011-084-301900-
WESTERN UPPER MICHIGAN

CITY           SKY/WX    TMP DP  RH WIND       PRES   REMARKS
IRON MOUNTAIN  CLOUDY    70  65  84 N5        29.75S
6HR MIN TEMP:  64; 6HR MAX TEMP:  70; 6HR PCP:  0.57;

HOUGHTON       CLOUDY    60  56  86 N9        29.83R
6HR MIN TEMP:  58; 6HR MAX TEMP:  61; 6HR PCP:  0.02;

COPPER HARBOR    N/A     57  54  89 NE12      29.81S
6HR MIN TEMP:  55; 6HR MAX TEMP:  57;

$$

ABBREVIATIONS USED IN REMARKS
   TC - TEMPERATURE IN CELSIUS
  WCI - WIND CHILL INDEX
   HX - HEAT INDEX
  VSB - VISIBILITY




USA.gov is the U.S. government's official web portal to all federal, state and local government web resources and services.